QFA930 PAFA-PADQ

Flight info

Callsign QFA930
Flight time 1h 19m
Altitude 35000
Route MKNLY4 TKA T381 BGQ Q43 TED J125 ODK
Aircraft B738/M-L/LB1

Departure

Time 2026-05-05 10:17
Airport Fairbanks International Airport (PAFA)

Arrival

Time 2026-05-05 11:36
Airport Kodiak Airport (PADQ)
Time Latitude Longitude Altitude Speed Heading
2026-05-05 09:03 64.81708 -147.86685 443 ft 0 kts 348°
2026-05-05 10:10 64.81700 -147.86681 443 ft 2 kts 348°
2026-05-05 10:10 64.81685 -147.86674 443 ft 2 kts 348°
2026-05-05 10:10 64.81669 -147.86666 443 ft 2 kts 348°
2026-05-05 10:11 64.81655 -147.86656 443 ft 2 kts 333°
2026-05-05 10:11 64.81642 -147.86637 443 ft 2 kts 319°
2026-05-05 10:11 64.81631 -147.86611 443 ft 2 kts 314°
2026-05-05 10:11 64.81620 -147.86585 443 ft 2 kts 314°
2026-05-05 10:12 64.81609 -147.86559 443 ft 2 kts 314°
2026-05-05 10:12 64.81608 -147.86558 443 ft 0 kts 314°
2026-05-05 10:13 64.81609 -147.86559 443 ft 1 kts 314°
2026-05-05 10:13 64.81610 -147.86628 443 ft 9 kts 238°
2026-05-05 10:13 64.81546 -147.86766 443 ft 15 kts 202°
2026-05-05 10:14 64.81434 -147.86770 443 ft 19 kts 212°
2026-05-05 10:14 64.81320 -147.86971 443 ft 22 kts 218°
2026-05-05 10:14 64.81191 -147.87211 443 ft 25 kts 217°
2026-05-05 10:14 64.81054 -147.87462 443 ft 25 kts 219°
2026-05-05 10:15 64.80920 -147.87713 443 ft 25 kts 218°
2026-05-05 10:15 64.80783 -147.87966 443 ft 25 kts 219°
2026-05-05 10:15 64.80647 -147.88221 443 ft 25 kts 218°
2026-05-05 10:15 64.80523 -147.88409 443 ft 18 kts 176°
2026-05-05 10:16 64.80484 -147.88189 443 ft 21 kts 42°
2026-05-05 10:16 64.80685 -147.87809 443 ft 65 kts 38°
2026-05-05 10:16 64.81201 -147.86861 443 ft 121 kts 38°
2026-05-05 10:16 64.81962 -147.85413 634 ft 147 kts 40°
2026-05-05 10:17 64.82733 -147.83831 1236 ft 150 kts 41°
2026-05-05 10:17 64.83500 -147.81946 1677 ft 167 kts 48°
2026-05-05 10:17 64.84348 -147.80047 2268 ft 175 kts 34°
2026-05-05 10:17 64.85536 -147.79018 2800 ft 189 kts
2026-05-05 10:18 64.86882 -147.79426 3384 ft 208 kts 339°
2026-05-05 10:18 64.88029 -147.81460 4167 ft 216 kts 308°
2026-05-05 10:18 64.88618 -147.84786 4833 ft 232 kts 274°
2026-05-05 10:18 64.88226 -147.88537 5403 ft 249 kts 235°
2026-05-05 10:19 64.86884 -147.91192 5981 ft 260 kts 202°
2026-05-05 10:19 64.85231 -147.92987 6938 ft 263 kts 204°
2026-05-05 10:19 64.83564 -147.94831 7897 ft 267 kts 205°
2026-05-05 10:19 64.81902 -147.96844 8777 ft 272 kts 216°
2026-05-05 10:20 64.80500 -147.99865 9667 ft 275 kts 224°
2026-05-05 10:20 64.79041 -148.02885 10321 ft 288 kts 219°
2026-05-05 10:20 64.77440 -148.05941 10789 ft 306 kts 218°
2026-05-05 10:20 64.75747 -148.09076 11224 ft 323 kts 217°
2026-05-05 10:21 64.73945 -148.12343 11935 ft 331 kts 217°
2026-05-05 10:21 64.72111 -148.15654 12803 ft 334 kts 217°
2026-05-05 10:21 64.70266 -148.18997 13724 ft 337 kts 217°
2026-05-05 10:21 64.68412 -148.22361 14653 ft 338 kts 216°
2026-05-05 10:22 64.66552 -148.25730 15586 ft 340 kts 216°
2026-05-05 10:22 64.64678 -148.29118 16514 ft 342 kts 215°
2026-05-05 10:22 64.62793 -148.32514 17437 ft 343 kts 214°
2026-05-05 10:22 64.60896 -148.35922 18333 ft 345 kts 214°
2026-05-05 10:23 64.58984 -148.39355 19143 ft 349 kts 214°
2026-05-05 10:23 64.57045 -148.42829 19887 ft 354 kts 214°
2026-05-05 10:23 64.55076 -148.46353 20581 ft 360 kts 214°
2026-05-05 10:23 64.53077 -148.49927 21266 ft 365 kts 214°
2026-05-05 10:24 64.51047 -148.53550 21931 ft 370 kts 214°
2026-05-05 10:24 64.48988 -148.57217 22583 ft 376 kts 215°
2026-05-05 10:24 64.46900 -148.60929 23213 ft 381 kts 215°
2026-05-05 10:24 64.44784 -148.64682 23826 ft 385 kts 215°
2026-05-05 10:25 64.42641 -148.68477 24427 ft 390 kts 214°
2026-05-05 10:25 64.40477 -148.72299 25081 ft 392 kts 214°
2026-05-05 10:25 64.38304 -148.76132 25743 ft 393 kts 214°
2026-05-05 10:25 64.36124 -148.79967 26388 ft 394 kts 214°
2026-05-05 10:26 64.33940 -148.83801 27002 ft 395 kts 213°
2026-05-05 10:26 64.31756 -148.87629 27581 ft 396 kts 213°
2026-05-05 10:26 64.29565 -148.91461 28155 ft 394 kts 213°
2026-05-05 10:26 64.27371 -148.95290 28635 ft 397 kts 213°
2026-05-05 10:27 64.25174 -148.99118 29126 ft 397 kts 213°
2026-05-05 10:27 64.22977 -149.02938 29585 ft 395 kts 212°
2026-05-05 10:27 64.20792 -149.06726 30070 ft 392 kts 212°
2026-05-05 10:27 64.18624 -149.10480 30570 ft 389 kts 212°
2026-05-05 10:28 64.16465 -149.14205 31063 ft 387 kts 212°
2026-05-05 10:28 64.14315 -149.17909 31511 ft 386 kts 212°
2026-05-05 10:28 64.12173 -149.21595 31999 ft 385 kts 212°
2026-05-05 10:28 64.10036 -149.25258 32473 ft 383 kts 212°
2026-05-05 10:29 64.07905 -149.28880 32941 ft 380 kts 210°
2026-05-05 10:29 64.05639 -149.31860 33413 ft 373 kts 201°
2026-05-05 10:29 64.03232 -149.33927 33881 ft 367 kts 193°
2026-05-05 10:29 64.00752 -149.35198 34354 ft 364 kts 190°
2026-05-05 10:30 63.98274 -149.36357 34663 ft 366 kts 190°
2026-05-05 10:30 63.95745 -149.37528 34673 ft 375 kts 190°
2026-05-05 10:30 63.90529 -149.39949 34683 ft 390 kts 190°
2026-05-05 10:31 63.85150 -149.42453 34684 ft 398 kts 190°
2026-05-05 10:31 63.79696 -149.44975 34683 ft 400 kts 190°
2026-05-05 10:32 63.74300 -149.47458 34683 ft 397 kts 190°
2026-05-05 10:32 63.68890 -149.49938 34684 ft 397 kts 190°
2026-05-05 10:33 63.63481 -149.52408 34685 ft 397 kts 190°
2026-05-05 10:33 63.58070 -149.54869 34686 ft 397 kts 190°
2026-05-05 10:34 63.52658 -149.57322 34686 ft 397 kts 190°
2026-05-05 10:34 63.47240 -149.59768 34691 ft 398 kts 190°
2026-05-05 10:35 63.41803 -149.62213 34689 ft 398 kts 190°
2026-05-05 10:35 63.36363 -149.64649 34689 ft 399 kts 190°
2026-05-05 10:36 63.30910 -149.67083 34692 ft 400 kts 189°
2026-05-05 10:36 63.25448 -149.69510 34692 ft 401 kts 189°
2026-05-05 10:37 63.19973 -149.71935 34693 ft 401 kts 189°
2026-05-05 10:37 63.14496 -149.74351 34695 ft 401 kts 189°
2026-05-05 10:38 63.09938 -149.76353 34697 ft 403 kts 189°
2026-05-05 10:38 63.03501 -149.79172 34699 ft 404 kts 189°
2026-05-05 10:39 62.98905 -149.81176 34701 ft 405 kts 189°
2026-05-05 10:39 62.93361 -149.83586 34702 ft 407 kts 189°
2026-05-05 10:40 62.87797 -149.85994 34704 ft 408 kts 189°
2026-05-05 10:40 62.82218 -149.88401 34706 ft 409 kts 189°
2026-05-05 10:41 62.76631 -149.90801 34707 ft 410 kts 189°
2026-05-05 10:41 62.71030 -149.93197 34710 ft 411 kts 189°
2026-05-05 10:42 62.62580 -149.96796 34710 ft 413 kts 189°
2026-05-05 10:43 62.56886 -149.99209 34711 ft 415 kts 189°
2026-05-05 10:43 62.51209 -150.01605 34708 ft 417 kts 189°
2026-05-05 10:44 62.45495 -150.04008 34710 ft 419 kts 189°
2026-05-05 10:44 62.39765 -150.06409 34711 ft 419 kts 189°
2026-05-05 10:45 62.34040 -150.08796 34711 ft 419 kts 189°
2026-05-05 10:45 62.28282 -150.10182 34709 ft 416 kts 175°
2026-05-05 10:46 62.22502 -150.09190 34711 ft 418 kts 174°
2026-05-05 10:46 62.16716 -150.07997 34712 ft 418 kts 174°
2026-05-05 10:47 62.10929 -150.06885 34712 ft 417 kts 174°
2026-05-05 10:47 62.05141 -150.05801 34713 ft 417 kts 174°
2026-05-05 10:48 61.99354 -150.04689 34713 ft 417 kts 174°
2026-05-05 10:48 61.93567 -150.03588 34715 ft 418 kts 174°
2026-05-05 10:49 61.87792 -150.02500 34717 ft 417 kts 174°
2026-05-05 10:49 61.81991 -150.01406 34720 ft 418 kts 174°
2026-05-05 10:50 61.76203 -150.00320 34724 ft 418 kts 174°
2026-05-05 10:50 61.70414 -149.99238 34726 ft 417 kts 174°
2026-05-05 10:51 61.64646 -149.98164 34722 ft 416 kts 174°
2026-05-05 10:51 61.58875 -149.97093 34717 ft 416 kts 174°
2026-05-05 10:52 61.53090 -149.96388 34725 ft 417 kts 179°
2026-05-05 10:52 61.47284 -149.96596 34724 ft 417 kts 180°
2026-05-05 10:53 61.41481 -149.96529 34725 ft 417 kts 178°
2026-05-05 10:53 61.35675 -149.96322 34731 ft 418 kts 179°
2026-05-05 10:54 61.29854 -149.96259 34731 ft 418 kts 179°
2026-05-05 10:54 61.24035 -149.96171 34730 ft 418 kts 179°
2026-05-05 10:55 61.18218 -149.96181 34733 ft 419 kts 184°
2026-05-05 10:55 61.12570 -149.99288 34743 ft 425 kts 198°
2026-05-05 10:56 61.07014 -150.03619 34733 ft 429 kts 198°
2026-05-05 10:56 61.01410 -150.08003 34729 ft 431 kts 198°
2026-05-05 10:57 60.95796 -150.12312 34726 ft 430 kts 198°
2026-05-05 10:57 60.90185 -150.16623 34724 ft 430 kts 198°
2026-05-05 10:58 60.84575 -150.20926 34720 ft 430 kts 198°
2026-05-05 10:58 60.78963 -150.25205 34716 ft 430 kts 198°
2026-05-05 10:59 60.73346 -150.29472 34712 ft 431 kts 198°
2026-05-05 10:59 60.67722 -150.33732 34707 ft 432 kts 198°
2026-05-05 11:00 60.62090 -150.37981 34703 ft 431 kts 198°
2026-05-05 11:00 60.56458 -150.42213 34699 ft 432 kts 198°
2026-05-05 11:01 60.50816 -150.46438 34694 ft 432 kts 198°
2026-05-05 11:01 60.45167 -150.50652 34705 ft 433 kts 198°
2026-05-05 11:02 60.39527 -150.54844 34695 ft 431 kts 198°
2026-05-05 11:02 60.33892 -150.59016 34692 ft 431 kts 198°
2026-05-05 11:03 60.28246 -150.63181 34691 ft 433 kts 198°
2026-05-05 11:03 60.22595 -150.67336 34690 ft 433 kts 198°
2026-05-05 11:04 60.16937 -150.71479 34688 ft 433 kts 198°
2026-05-05 11:04 60.11313 -150.75582 34687 ft 433 kts 198°
2026-05-05 11:05 60.05641 -150.79706 34683 ft 434 kts 198°
2026-05-05 11:05 59.99964 -150.83819 34684 ft 434 kts 198°
2026-05-05 11:06 59.94268 -150.87928 34682 ft 436 kts 199°
2026-05-05 11:06 59.88560 -150.92034 34678 ft 436 kts 198°
2026-05-05 11:07 59.82853 -150.96123 34676 ft 436 kts 199°
2026-05-05 11:07 59.77183 -151.00170 34673 ft 437 kts 199°
2026-05-05 11:08 59.71465 -151.04237 34668 ft 436 kts 199°
2026-05-05 11:08 59.65744 -151.08291 34663 ft 437 kts 199°
2026-05-05 11:09 59.60014 -151.12337 34659 ft 437 kts 199°
2026-05-05 11:09 59.54284 -151.16369 34657 ft 437 kts 199°
2026-05-05 11:10 59.48544 -151.20392 34655 ft 438 kts 199°
2026-05-05 11:10 59.42799 -151.24405 34655 ft 438 kts 199°
2026-05-05 11:11 59.37055 -151.28402 34656 ft 438 kts 199°
2026-05-05 11:11 59.31321 -151.32380 33928 ft 435 kts 199°
2026-05-05 11:11 59.28486 -151.34341 33345 ft 429 kts 198°
2026-05-05 11:12 59.25686 -151.36274 32781 ft 424 kts 198°
2026-05-05 11:12 59.22921 -151.38180 32226 ft 419 kts 198°
2026-05-05 11:12 59.20188 -151.40060 31680 ft 414 kts 198°
2026-05-05 11:12 59.17487 -151.41915 31142 ft 409 kts 198°
2026-05-05 11:13 59.14816 -151.43747 30610 ft 405 kts 198°
2026-05-05 11:13 59.12174 -151.45556 30084 ft 400 kts 198°
2026-05-05 11:13 59.09560 -151.47342 29562 ft 396 kts 198°
2026-05-05 11:13 59.06973 -151.49108 29047 ft 392 kts 198°
2026-05-05 11:14 59.04443 -151.50831 28545 ft 389 kts 198°
2026-05-05 11:14 59.01841 -151.52598 28029 ft 400 kts 198°
2026-05-05 11:14 58.99232 -151.54370 27508 ft 395 kts 198°
2026-05-05 11:14 58.96654 -151.56120 26995 ft 390 kts 198°
2026-05-05 11:15 58.94104 -151.57848 26487 ft 387 kts 198°
2026-05-05 11:15 58.91573 -151.59558 25983 ft 384 kts 198°
2026-05-05 11:15 58.89058 -151.61254 25483 ft 383 kts 198°
2026-05-05 11:15 58.86547 -151.62945 24983 ft 381 kts 198°
2026-05-05 11:16 58.84049 -151.64626 24485 ft 380 kts 198°
2026-05-05 11:16 58.81556 -151.66301 23988 ft 379 kts 198°
2026-05-05 11:16 58.79074 -151.67966 23494 ft 377 kts 198°
2026-05-05 11:16 58.76606 -151.69619 23001 ft 374 kts 198°
2026-05-05 11:17 58.74156 -151.71258 22509 ft 371 kts 198°
2026-05-05 11:17 58.71722 -151.72883 22020 ft 369 kts 198°
2026-05-05 11:17 58.69270 -151.74518 21530 ft 367 kts 198°
2026-05-05 11:17 58.66864 -151.76120 21048 ft 365 kts 198°
2026-05-05 11:18 58.64470 -151.77712 20571 ft 363 kts 198°
2026-05-05 11:18 58.62085 -151.79295 20095 ft 362 kts 198°
2026-05-05 11:18 58.59719 -151.80863 19622 ft 358 kts 198°
2026-05-05 11:18 58.57378 -151.82414 19154 ft 354 kts 197°
2026-05-05 11:19 58.55060 -151.83946 18691 ft 350 kts 197°
2026-05-05 11:19 58.52768 -151.85458 18233 ft 346 kts 197°
2026-05-05 11:19 58.50508 -151.86948 17782 ft 342 kts 197°
2026-05-05 11:19 58.48265 -151.88424 17334 ft 338 kts 197°
2026-05-05 11:20 58.46055 -151.89876 16892 ft 334 kts 197°
2026-05-05 11:20 58.43852 -151.91320 16454 ft 336 kts 197°
2026-05-05 11:20 58.41638 -151.92770 16012 ft 338 kts 197°
2026-05-05 11:20 58.40159 -151.93739 15715 ft 339 kts 197°
2026-05-05 11:21 58.37931 -151.95199 15269 ft 338 kts 197°
2026-05-05 11:21 58.35704 -151.96656 14821 ft 338 kts 197°
2026-05-05 11:21 58.33519 -151.98084 14586 ft 326 kts 197°
2026-05-05 11:21 58.31373 -151.99482 14246 ft 334 kts 197°
2026-05-05 11:22 58.29156 -152.00919 13836 ft 337 kts 196°
2026-05-05 11:22 58.26963 -152.02345 13402 ft 330 kts 197°
2026-05-05 11:22 58.24811 -152.03745 12967 ft 324 kts 197°
2026-05-05 11:22 58.22706 -152.05112 12545 ft 317 kts 196°
2026-05-05 11:23 58.20614 -152.06465 12128 ft 321 kts 196°
2026-05-05 11:23 58.18487 -152.07835 11700 ft 324 kts 196°
2026-05-05 11:23 58.16348 -152.09215 11270 ft 324 kts 196°
2026-05-05 11:23 58.14240 -152.10579 10843 ft 316 kts 196°
2026-05-05 11:24 58.12179 -152.11910 10430 ft 311 kts 196°
2026-05-05 11:24 58.10141 -152.13221 10282 ft 306 kts 196°
2026-05-05 11:24 58.08146 -152.14502 10150 ft 300 kts 195°
2026-05-05 11:24 58.06183 -152.15761 9958 ft 296 kts 195°
2026-05-05 11:25 58.04260 -152.16994 9709 ft 286 kts 195°
2026-05-05 11:25 58.02439 -152.18160 9453 ft 267 kts 195°
2026-05-05 11:25 58.00733 -152.19245 9195 ft 251 kts 194°
2026-05-05 11:25 57.99125 -152.20268 8941 ft 237 kts 194°
2026-05-05 11:26 57.97602 -152.21239 8702 ft 224 kts 194°
2026-05-05 11:26 57.96170 -152.22154 8478 ft 212 kts 194°
2026-05-05 11:26 57.94759 -152.22750 8017 ft 206 kts 174°
2026-05-05 11:26 57.93417 -152.22070 7579 ft 198 kts 147°
2026-05-05 11:27 57.92457 -152.20322 7208 ft 192 kts 120°
2026-05-05 11:27 57.91815 -152.18158 6958 ft 188 kts 119°
2026-05-05 11:27 57.91108 -152.16092 6669 ft 187 kts 124°
2026-05-05 11:27 57.90311 -152.14175 6378 ft 186 kts 128°
2026-05-05 11:28 57.89442 -152.12378 6086 ft 185 kts 132°
2026-05-05 11:28 57.88509 -152.10710 5791 ft 185 kts 136°
2026-05-05 11:28 57.87514 -152.09183 5500 ft 184 kts 140°
2026-05-05 11:28 57.86462 -152.07802 5204 ft 185 kts 144°
2026-05-05 11:29 57.85357 -152.06578 4912 ft 184 kts 149°
2026-05-05 11:29 57.84205 -152.05519 4615 ft 184 kts 153°
2026-05-05 11:29 57.83016 -152.04631 4322 ft 184 kts 157°
2026-05-05 11:29 57.81790 -152.03912 3964 ft 188 kts 161°
2026-05-05 11:30 57.80492 -152.03358 3531 ft 194 kts 167°
2026-05-05 11:30 57.79134 -152.03001 3141 ft 198 kts 172°
2026-05-05 11:30 57.77795 -152.02908 3021 ft 189 kts 178°
2026-05-05 11:30 57.76499 -152.03084 2766 ft 186 kts 182°
2026-05-05 11:31 57.75221 -152.03486 2473 ft 189 kts 201°
2026-05-05 11:31 57.74344 -152.05234 2245 ft 191 kts 248°
2026-05-05 11:31 57.74192 -152.07726 1925 ft 195 kts 270°
2026-05-05 11:31 57.74281 -152.10263 1890 ft 196 kts 274°
2026-05-05 11:32 57.74394 -152.12797 1903 ft 196 kts 273°
2026-05-05 11:32 57.74479 -152.15353 1889 ft 197 kts 272°
2026-05-05 11:32 57.74542 -152.17917 1903 ft 198 kts 271°
2026-05-05 11:32 57.74596 -152.20484 1867 ft 196 kts 271°
2026-05-05 11:33 57.74646 -152.22928 1820 ft 180 kts 271°
2026-05-05 11:33 57.74697 -152.25261 1714 ft 180 kts 272°
2026-05-05 11:33 57.74741 -152.27578 1661 ft 178 kts 271°
2026-05-05 11:33 57.74780 -152.29890 1696 ft 178 kts 271°
2026-05-05 11:34 57.74812 -152.32210 1640 ft 180 kts 271°
2026-05-05 11:34 57.74844 -152.34592 1488 ft 180 kts 271°
2026-05-05 11:34 57.74894 -152.36915 1319 ft 178 kts 273°
2026-05-05 11:34 57.74956 -152.39158 1192 ft 174 kts 274°
2026-05-05 11:35 57.75007 -152.41407 937 ft 172 kts 274°
2026-05-05 11:35 57.75042 -152.43619 665 ft 167 kts 274°
2026-05-05 11:35 57.75086 -152.45700 383 ft 153 kts 275°
2026-05-05 11:35 57.75134 -152.47639 156 ft 143 kts 274°
2026-05-05 11:36 57.75170 -152.49294 89 ft 102 kts 273°
2026-05-05 11:36 57.75194 -152.50223 89 ft 57 kts 273°
2026-05-05 11:36 57.75134 -152.50562 89 ft 19 kts 173°
2026-05-05 11:36 57.75075 -152.50365 89 ft 20 kts 87°
2026-05-05 11:37 57.75075 -152.50077 89 ft 24 kts 90°
2026-05-05 11:37 57.75077 -152.49758 89 ft 25 kts 90°
2026-05-05 11:37 57.75017 -152.49459 89 ft 25 kts 123°
2026-05-05 11:37 57.74918 -152.49192 89 ft 25 kts 126°
2026-05-05 11:38 57.74844 -152.48923 89 ft 15 kts 122°
2026-05-05 11:38 57.74827 -152.48960 89 ft 9 kts 302°
2026-05-05 11:38 57.74910 -152.49184 89 ft 32 kts 304°
2026-05-05 11:38 57.75046 -152.49542 89 ft 31 kts 304°
2026-05-05 11:39 57.75077 -152.49966 89 ft 37 kts 274°
2026-05-05 11:39 57.75088 -152.50485 89 ft 43 kts 272°
2026-05-05 11:39 57.75100 -152.51036 89 ft 40 kts 271°
2026-05-05 11:39 57.75123 -152.51455 89 ft 25 kts 313°
2026-05-05 11:40 57.75212 -152.51325 89 ft 23 kts 88°
2026-05-05 11:40 57.75255 -152.51168 89 ft 6 kts 330°
2026-05-05 11:40 57.75261 -152.51174 89 ft 0 kts 329°
2026-05-05 11:40 57.75276 -152.51193 89 ft 8 kts 327°
2026-05-05 11:41 57.75318 -152.51315 89 ft 12 kts 281°
2026-05-05 11:41 57.75351 -152.51418 89 ft 7 kts 343°
2026-05-05 11:41 57.75383 -152.51423 89 ft 0 kts 356°